FW7196 Weather Reports


time (UTC)temp
C
wind
direction
speed
KPH
gust
KPH
rain 1hr
cm
rain 24hr
cm
rain mn
cm
humidity
%
barometer
mb
20260509183035 7 0 0.0 4.8 0.18 0.51 0.51 93 1011.5
20260509181535 7 0 0.0 6.4 0.15 0.46 0.46 94 1011.5
20260509180035 7 128 0.0 4.8 0.15 0.41 0.41 94 1011.7
20260509174536 7 0 0.0 0.0 0.18 0.38 0.38 94 1011.9
20260509173038 6 0 0.0 0.0 0.18 0.33 0.33 93 1012.1
20260509171538 6 0 0.0 0.0 0.18 0.28 0.28 92 1012.3
20260509170038 6 0 0.0 0.0 0.20 0.25 0.25 92 1012.4
20260509164536 7 0 0.0 0.0 0.15 0.20 0.20 91 1012.5
20260509163034 7 0 0.0 0.0 0.13 0.15 0.15 90 1012.7
20260509161533 7 0 0.0 4.8 0.05 0.08 0.08 88 1012.7
20260509160035 8 0 0.0 3.2 0.03 0.05 0.05 87 1013.0
20260509154536 8 0 0.0 3.2 0.05 0.05 0.05 87 1012.9
20260509153036 8 0 0.0 3.2 0.03 0.03 0.03 86 1013.2
20260509152054 8 55 0.0 6.4 0.00 0.00 0.03 86 1013.2
20260509151535 8 0 0.0 3.2 0.03 0.03 0.03 86 1013.2
20260509150036 8 0 0.0 1.6 0.03 0.03 0.03 83 1013.1
20260509144544 8 0 0.0 0.0 0.00 0.00 0.00 80 1013.0
20260509143039 9 159 1.6 8.0 0.00 0.00 0.00 71 1012.9
20260509141539 9 0 1.6 4.8 0.00 0.00 0.00 64 1012.9
20260509140054 9 0 0.0 9.7 0.00 0.00 0.00 64 1012.7
20260509134537 9 0 0.0 6.4 0.00 0.00 0.00 62 1012.8
20260509133839 10 82 0.0 0.0 0.00 0.00 0.00 61 1012.8
20260509133344 10 80 0.0 0.0 0.00 0.00 0.00 61 1012.8
20260509133036 9 0 0.0 9.7 0.00 0.00 0.00 61 1012.8
20260509132849 10 155 0.0 4.8 0.00 0.00 0.00 60 1012.7
20260509132345 10 130 0.0 6.4 0.00 0.00 0.00 61 1012.6
20260509131848 10 313 0.0 4.8 0.00 0.00 0.00 61 1012.7
20260509131545 9 138 1.6 11.3 0.00 0.00 0.00 61 1012.8
20260509130735 9 109 1.6 9.7 0.00 0.00 0.00 60 1012.7
20260509130035 8 0 3.2 11.3 0.00 0.00 0.00 63 1012.7
20260509125603 8 56 1.6 9.7 0.00 0.00 0.00 63 1012.6
20260509125048 8 75 0.0 9.7 0.00 0.00 0.00 64 1013.0
20260509124542 7 340 1.6 9.7 0.00 0.00 0.00 67 1013.1
20260509124539 8 55 0.0 4.8 0.00 0.00 0.00 67 1013.1
20260509123032 5 332 0.0 4.8 0.00 0.00 0.00 79 1013.2
20260509121551 4 0 0.0 0.0 0.00 0.00 0.00 84 1013.4
20260509120038 3 0 0.0 0.0 0.00 0.00 0.00 87 1013.5
20260509114535 2 0 0.0 0.0 0.00 0.00 0.00 92 1013.6
20260509113057 1 0 0.0 0.0 0.00 0.00 0.00 93 1013.8
20260509111538 0 0 0.0 0.0 0.00 0.00 0.00 94 1013.6
20260509110038 0 0 0.0 0.0 0.00 0.00 0.00 94 1013.7
20260509104537 -1 0 0.0 0.0 0.00 0.00 0.00 94 1013.6
20260509103037 -1 0 0.0 0.0 0.00 0.00 0.00 93 1013.7
20260509101537 -1 0 0.0 0.0 0.00 0.00 0.00 93 1013.7
20260509100035 -1 0 0.0 0.0 0.00 0.00 0.00 92 1013.6
20260509094538 -1 0 0.0 0.0 0.00 0.00 0.00 92 1013.2
20260509093038 -1 0 0.0 0.0 0.00 0.00 0.00 92 1013.0
20260509091536 -1 0 0.0 0.0 0.00 0.00 0.00 91 1012.8
20260509090035 -1 0 0.0 0.0 0.00 0.00 0.00 92 1012.8
20260509084538 -1 0 0.0 0.0 0.00 0.00 0.00 91 1012.7
20260509083046 0 0 0.0 0.0 0.00 0.00 0.00 92 1012.6
20260509081536 -1 0 0.0 0.0 0.00 0.00 0.00 92 1012.3
20260509080037 -1 0 0.0 0.0 0.00 0.00 0.00 91 1012.3
20260509074537 0 0 0.0 0.0 0.00 0.00 0.00 91 1012.4
20260509073036 0 0 0.0 0.0 0.00 0.00 0.00 91 1012.7
20260509071540 -1 0 0.0 0.0 0.00 0.00 0.00 91 1012.7
20260509070733 0 70 0.0 0.0 0.00 0.00 0.00 91 1012.7
20260509070037 -1 0 0.0 0.0 0.00 0.00 0.00 90 1012.8
20260509064536 -1 0 0.0 0.0 0.00 0.00 0.00 90 1012.9
20260509063035 0 0 0.0 0.0 0.00 0.00 0.00 89 1012.9
20260509061541 0 0 0.0 0.0 0.00 0.00 0.00 89 1012.9
20260509060037 0 0 0.0 0.0 0.00 0.00 0.00 88 1012.9
20260509054540 0 0 0.0 0.0 0.00 0.00 0.00 88 1013.0
20260509053058 0 0 0.0 0.0 0.00 0.00 0.00 87 1012.9
20260509051536 0 0 0.0 0.0 0.00 0.00 0.00 87 1012.8
20260509050037 0 0 0.0 0.0 0.00 0.00 0.00 86 1012.7
20260509044534 0 0 0.0 0.0 0.00 0.00 0.00 85 1012.5
20260509043046 1 0 0.0 0.0 0.00 0.00 0.00 84 1012.5
20260509041550 1 0 0.0 0.0 0.00 0.00 0.00 83 1012.7
20260509040035 1 0 0.0 0.0 0.00 0.00 0.00 82 1012.5
20260509034546 2 0 0.0 0.0 0.00 0.00 0.00 81 1012.5
20260509033037 2 0 0.0 0.0 0.00 0.00 0.00 80 1012.5
20260509031539 2 0 0.0 0.0 0.00 0.00 0.00 78 1012.3
20260509030036 3 0 0.0 0.0 0.00 0.00 0.00 77 1012.2
20260509024536 3 0 0.0 0.0 0.00 0.00 0.00 75 1012.0
20260509023037 4 0 0.0 0.0 0.00 0.00 0.00 73 1011.9
20260509021538 5 0 0.0 0.0 0.00 0.00 0.00 72 1011.7
20260509020047 5 0 0.0 0.0 0.00 0.00 0.00 70 1011.5
20260509014535 6 0 0.0 0.0 0.00 0.00 0.00 66 1011.4
20260509013047 7 0 0.0 0.0 0.00 0.00 0.00 61 1011.1
20260509011536 7 0 0.0 0.0 0.00 0.00 0.00 58 1011.0
20260509010049 7 0 0.0 4.8 0.00 0.00 0.00 57 1010.8
20260509004537 8 123 1.6 6.4 0.00 0.00 0.00 57 1010.6
20260509003037 8 0 0.0 3.2 0.00 0.00 0.00 54 1010.5
20260509001536 8 0 0.0 4.8 0.00 0.00 0.00 53 1010.3
20260509000034 9 0 0.0 11.3 0.00 0.00 0.00 52 1010.0
20260508235427 9 19 1.6 9.7 0.00 0.00 0.00 50 1009.9
20260508234919 10 192 0.0 1.6 0.00 0.00 0.00 49 1009.8
20260508234538 9 200 1.6 4.8 0.00 0.00 0.00 47 1009.8
20260508234419 10 109 0.0 3.2 0.00 0.00 0.00 47 1009.7
20260508233037 10 0 0.0 11.3 0.00 0.00 0.00 44 1009.4
20260508231536 10 0 0.0 12.9 0.00 0.00 0.00 41 1009.3
20260508230047 10 0 1.6 4.8 0.00 0.00 0.00 40 1009.2
20260508224541 10 0 0.0 0.0 0.00 0.00 0.00 39 1009.2
20260508223039 10 0 0.0 9.7 0.00 0.00 0.00 43 1009.0
20260508221545 11 72 0.0 4.8 0.00 0.00 0.00 37 1009.0
20260508220037 11 334 1.6 4.8 0.00 0.00 0.00 38 1008.9
20260508214535 11 0 0.0 3.2 0.00 0.00 0.00 39 1008.8
20260508213034 11 0 0.0 9.7 0.00 0.00 0.00 41 1008.8
20260508211535 11 0 0.0 6.4 0.00 0.00 0.00 37 1008.8
20260508211252 11 299 1.6 4.8 0.00 0.00 0.00 39 1008.7
20260508210745 11 340 1.6 4.8 0.00 0.00 0.00 38 1008.6
20260508210236 11 70 0.0 4.8 0.00 0.00 0.00 35 1008.5
20260508210036 11 329 1.6 9.7 0.00 0.00 0.00 36 1008.6
20260508205722 11 23 0.0 4.8 0.00 0.00 0.00 36 1008.5
20260508204539 11 324 3.2 8.0 0.00 0.00 0.00 40 1008.5
20260508203942 11 340 1.6 4.8 0.00 0.00 0.00 39 1008.3
20260508203450 11 340 1.6 4.8 0.00 0.00 0.00 39 1008.4
20260508203035 11 302 3.2 6.4 0.00 0.00 0.00 39 1008.4
20260508202957 11 357 1.6 4.8 0.00 0.00 0.00 39 1008.3
20260508202453 11 336 1.6 4.8 0.00 0.00 0.00 38 1008.3
20260508201536 11 358 1.6 6.4 0.00 0.00 0.00 38 1008.3
20260508200655 11 321 0.0 0.0 0.00 0.00 0.00 39 1008.2
20260508200201 10 321 0.0 0.0 0.00 0.00 0.00 41 1008.3
20260508200043 10 0 0.0 8.0 0.00 0.00 0.00 39 1008.3
20260508195649 10 3 1.6 4.8 0.00 0.00 0.00 39 1008.4
20260508195149 11 301 0.0 3.2 0.00 0.00 0.00 39 1008.4
20260508194535 10 23 0.0 4.8 0.00 0.00 0.00 41 1008.4
20260508193037 10 0 0.0 6.4 0.00 0.00 0.00 40 1008.5
20260508191534 11 24 3.2 14.5 0.00 0.00 0.00 38 1008.4
20260508190043 10 143 1.6 6.4 0.00 0.00 0.00 42 1008.7
20260508184538 9 0 0.0 6.4 0.00 0.00 0.00 43 1008.8